STARLINK-37046, 68102

Orbit data source: Space-Track

STARLINK-37046, 68102 is a payload satellite owned by SpaceX/Seattle (US) in SSO that was launched on Sun, 08 Mar 2026 UTC via an FALCON 9 launch vehicle from the Air Force Western Test Range (AFWTR). Payload-class satellites include a variety of spacecraft equipped with specific instruments for various scientific and technological missions. These include communications satellites like Starlink; space stations such as the ISS; scientific satellites like the Hubble; Earth observation satellites from companies like Planet Labs, Umbra, and HawkEye 360; GPS; miniature CubeSats for education and research; and military/defense satellites.

Loading next visibility...
Identifier
68102, 2026-044B
Orbit
SSO
Country
Flag of USUS
Related business
Manufacturer
SpaceX/Seattle
Mission
Operational spacecraft
Bus & Motor
STARLINK V2MO, Unknown motor
Mass
575 kg wet, ~530 kg dry
Launch date (UTC)
2026-03-08 (1 month ago)
Launch vehicle
FALCON 9
Launch site
Air Force Western Test Range (AFWTR)
Object type
Payload
Rocket body
Debris
Shape & HBR
Unknown shape, 17.7 m
Radar Cross Section
RCS unknown

Expand to show TLE details & history
Last TLE update: 10 hours ago

TLE from 10 hours ago
0 STARLINK-37046
1 68102U 26044B   26105.12976630  .00010559  00000-0  32892-3 0  9998
2 68102  97.2850  66.2597 0001817  95.8103 264.3347 15.33446954  7165
Epoch: 2026-04-15T03:06Z
TLE epoch observation values (Epoch: 2026-04-15T03:06:51.808Z)
Latitude
-0.00001°
Longitude
176.24775°
Altitude
468.772 km
Speed
7.632 km/s
True Right ascension
04h 25m 02s
True Declination
0° 00' 00"
Sunlit
Object was in daylight at epoch
Visualization orbit readout
Latitude
Unknown
Longitude
Unknown
Altitude
Unknown
Speed
Unknown
Apparent Right ascension
Unknown
Apparent Declination
Unknown
Sunlit
N/A
Visualization observer readout
Local Sidereal Time
19:33:41
Azimuth
Unknown
Elevation
Unknown
Doppler factor
Unknown
Orbital elements
Apogee altitude
463.723 km
Perigee altitude
461.237 km
Semi-major axis
6,840.617 km
Eccentricity
0.00018
Inclination
97.285°
RAAN
66.2597°
Arg. of periapsis
95.8103°
True anomaly
264.31398°
Mean anomaly
264.3347°
Eccentric anomaly
264.32434°
Mean motion
3.83619 °/min
Orbital period
93.84 mins
BSTAR
0.00032892
Loading maneuver chart data...
Computing Atmospheric mass density...
Loading historical data...
Loading historical data...
Loading historical data...
Loading historical data...
Loading historical data...
Loading historical data...
Loading historical data...

Documentation

Showing up to 5 results
|